• In Russia
  • List of Countries
  • For 7 days
  • Water Temperature
  • Satellite Maps
  • Weather Map
  • Weather Widgets
  • user-avatar
    Login

    Hourly Weather Kandahar

    Today, 20 February, Wednesday

    Time Temperature Precipitation Wind Pressure Humidity
    00:00 +11°C° 0.1 mm 3 mps 671 mmHg 54%
    01:00 +11°C° 0.1 mm 3 mps 671 mmHg 57%
    02:00 +10°C° 0.5 mm 3 mps 671 mmHg 60%
    03:00 +10°C° 0.5 mm 4 mps 671 mmHg 64%
    04:00 +10°C° 0 mm 3 mps 671 mmHg 65%
    05:00 +9°C° 0.4 mm 3 mps 671 mmHg 66%
    06:00 +9°C° 0.4 mm 3 mps 671 mmHg 67%
    07:00 +9°C° 0.4 mm 3 mps 671 mmHg 68%
    08:00 +9°C° 0.6 mm 2 mps 672 mmHg 67%
    09:00 +9°C° 0.6 mm 2 mps 672 mmHg 66%
    10:00 +9°C° 0 mm 2 mps 672 mmHg 63%
    11:00 +9°C° 0.5 mm 2 mps 672 mmHg 63%
    12:00 +9°C° 0.5 mm 2 mps 672 mmHg 63%
    13:00 +11°C° 0.5 mm 1 mps 672 mmHg 62%
    14:00 +10°C° 0 mm 2 mps 672 mmHg 60%
    15:00 +12°C° 0 mm 2 mps 672 mmHg 58%
    16:00 +12°C° 0 mm 2 mps 672 mmHg 55%
    17:00 +12°C° 0 mm 2 mps 672 mmHg 58%
    18:00 +10°C° 0 mm 2 mps 672 mmHg 61%
    19:00 +10°C° 0 mm 2 mps 673 mmHg 64%
    20:00 +10°C° 0 mm 2 mps 673 mmHg 63%
    21:00 +9°C° 0 mm 2 mps 673 mmHg 61%
    22:00 +9°C° 0 mm 2 mps 674 mmHg 60%
    23:00 +9°C° 0 mm 3 mps 674 mmHg 60%

    Tomorrow, 21 February, Thursday

    Time Temperature Precipitation Wind Pressure Humidity
    00:00 +8°C° 0 mm 3 mps 674 mmHg 60%
    01:00 +8°C° 0 mm 3 mps 674 mmHg 59%
    02:00 +7°C° 0 mm 3 mps 674 mmHg 62%
    03:00 +7°C° 0 mm 3 mps 675 mmHg 66%
    04:00 +5°C° 0 mm 4 mps 675 mmHg 69%
    05:00 +5°C° 0 mm 4 mps 676 mmHg 68%
    06:00 +4°C° 0 mm 4 mps 676 mmHg 67%
    07:00 +4°C° 0 mm 4 mps 677 mmHg 67%
    08:00 +5°C° 0 mm 4 mps 677 mmHg 58%
    09:00 +6°C° 0 mm 5 mps 678 mmHg 50%
    10:00 +6°C° 0 mm 5 mps 679 mmHg 41%
    11:00 +7°C° 0 mm 4 mps 679 mmHg 38%
    12:00 +8°C° 0 mm 4 mps 678 mmHg 34%
    13:00 +10°C° 0 mm 4 mps 678 mmHg 31%
    14:00 +10°C° 0 mm 3 mps 678 mmHg 30%
    15:00 +10°C° 0 mm 3 mps 678 mmHg 30%
    16:00 +10°C° 0 mm 3 mps 677 mmHg 29%
    17:00 +9°C° 0 mm 3 mps 678 mmHg 33%
    18:00 +9°C° 0 mm 3 mps 678 mmHg 36%
    19:00 +8°C° 0 mm 2 mps 678 mmHg 40%
    20:00 +8°C° 0 mm 2 mps 678 mmHg 42%
    21:00 +7°C° 0 mm 2 mps 678 mmHg 45%
    22:00 +8°C° 0 mm 1 mps 678 mmHg 47%
    23:00 +7°C° 0 mm 1 mps 678 mmHg 49%

    Day after tomorrow, 22 February, Friday

    Time Temperature Precipitation Wind Pressure Humidity
    00:00 +6°C° 0 mm 0 mps 678 mmHg 52%
    01:00 +5°C° 0 mm 0 mps 678 mmHg 54%
    02:00 +5°C° 0 mm 0 mps 678 mmHg 54%
    03:00 +5°C° 0 mm 0 mps 677 mmHg 54%
    04:00 +5°C° 0 mm 1 mps 677 mmHg 54%
    05:00 +6°C° 0 mm 1 mps 677 mmHg 53%
    06:00 +6°C° 0 mm 1 mps 678 mmHg 51%
    07:00 +5°C° 0 mm 2 mps 678 mmHg 50%
    08:00 +6°C° 0 mm 2 mps 678 mmHg 45%
    09:00 +8°C° 0 mm 3 mps 678 mmHg 40%
    10:00 +9°C° 0 mm 3 mps 679 mmHg 36%
    11:00 +10°C° 0 mm 3 mps 678 mmHg 33%
    12:00 +11°C° 0 mm 3 mps 678 mmHg 30%
    13:00 +12°C° 0 mm 3 mps 677 mmHg 28%
    14:00 +12°C° 0 mm 3 mps 677 mmHg 26%
    15:00 +14°C° 0 mm 2 mps 677 mmHg 25%
    16:00 +14°C° 0 mm 2 mps 676 mmHg 23%
    17:00 +12°C° 0 mm 3 mps 676 mmHg 27%
    18:00 +11°C° 0 mm 3 mps 677 mmHg 31%
    19:00 +10°C° 0 mm 3 mps 677 mmHg 35%
    20:00 +9°C° 0 mm 3 mps 677 mmHg 39%
    21:00 +9°C° 0 mm 3 mps 677 mmHg 42%
    22:00 +7°C° 0 mm 4 mps 677 mmHg 46%
    23:00 +6°C° 0 mm 4 mps 677 mmHg 45%

    23 February, Saturday

    Time Temperature Precipitation Wind Pressure Humidity
    00:00 +6°C° 0 mm 4 mps 676 mmHg 44%
    01:00 +5°C° 0 mm 4 mps 676 mmHg 44%
    02:00 +5°C° 0 mm 4 mps 676 mmHg 43%
    03:00 +5°C° 0 mm 4 mps 676 mmHg 42%
    04:00 +4°C° 0 mm 4 mps 675 mmHg 41%
    05:00 +4°C° 0 mm 4 mps 676 mmHg 41%
    06:00 +4°C° 0 mm 4 mps 676 mmHg 40%
    07:00 +4°C° 0 mm 4 mps 676 mmHg 39%
    08:00 +6°C° 0 mm 4 mps 676 mmHg 34%
    09:00 +8°C° 0 mm 4 mps 677 mmHg 29%
    10:00 +11°C° 0 mm 4 mps 677 mmHg 24%
    11:00 +12°C° 0 mm 4 mps 676 mmHg 22%
    12:00 +13°C° 0 mm 3 mps 676 mmHg 19%
    13:00 +15°C° 0 mm 2 mps 675 mmHg 17%
    14:00 +15°C° 0 mm 2 mps 675 mmHg 17%
    15:00 +16°C° 0 mm 1 mps 675 mmHg 17%
    16:00 +16°C° 0 mm 1 mps 675 mmHg 17%
    17:00 +15°C° 0 mm 1 mps 675 mmHg 21%
    18:00 +14°C° 0 mm 1 mps 675 mmHg 24%
    19:00 +13°C° 0 mm 1 mps 675 mmHg 28%
    20:00 +12°C° 0 mm 1 mps 675 mmHg 29%
    21:00 +12°C° 0 mm 1 mps 675 mmHg 31%
    22:00 +11°C° 0 mm 1 mps 675 mmHg 32%
    23:00 +11°C° 0 mm 1 mps 674 mmHg 33%

    24 February, Sunday

    Time Temperature Precipitation Wind Pressure Humidity
    00:00 +10°C° 0 mm 1 mps 674 mmHg 34%
    01:00 +10°C° 0 mm 1 mps 674 mmHg 35%
    02:00 +9°C° 0 mm 1 mps 673 mmHg 36%
    03:00 +9°C° 0 mm 1 mps 673 mmHg 38%
    04:00 +8°C° 0 mm 1 mps 673 mmHg 39%
    05:00 +8°C° 0 mm 1 mps 673 mmHg 39%
    06:00 +8°C° 0 mm 1 mps 674 mmHg 39%
    07:00 +8°C° 0 mm 1 mps 674 mmHg 39%
    08:00 +9°C° 0 mm 1 mps 674 mmHg 35%
    09:00 +11°C° 0 mm 1 mps 675 mmHg 31%
    10:00 +12°C° 0 mm 1 mps 675 mmHg 27%
    11:00 +13°C° 0 mm 2 mps 675 mmHg 25%
    12:00 +15°C° 0 mm 2 mps 674 mmHg 23%
    13:00 +16°C° 0 mm 3 mps 674 mmHg 21%
    14:00 +15°C° 0 mm 4 mps 674 mmHg 20%
    15:00 +15°C° 0 mm 5 mps 673 mmHg 19%
    16:00 +15°C° 0 mm 6 mps 673 mmHg 18%
    17:00 +14°C° 0 mm 5 mps 673 mmHg 22%
    18:00 +13°C° 0 mm 4 mps 674 mmHg 25%
    19:00 +12°C° 0 mm 3 mps 674 mmHg 28%
    20:00 +12°C° 0 mm 3 mps 674 mmHg 30%
    21:00 +11°C° 0 mm 3 mps 674 mmHg 33%
    22:00 +10°C° 0 mm 3 mps 674 mmHg 35%
    23:00 +10°C° 0 mm 2 mps 673 mmHg 37%

    25 February, Monday

    Time Temperature Precipitation Wind Pressure Humidity
    00:00 +9°C° 0 mm 2 mps 673 mmHg 39%
    01:00 +8°C° 0 mm 2 mps 673 mmHg 41%
    02:00 +8°C° 0 mm 2 mps 673 mmHg 42%
    03:00 +7°C° 0 mm 2 mps 672 mmHg 43%
    04:00 +7°C° 0 mm 2 mps 672 mmHg 43%
    05:00 +7°C° 0 mm 2 mps 673 mmHg 43%
    06:00 +6°C° 0 mm 2 mps 673 mmHg 42%
    07:00 +5°C° 0 mm 3 mps 673 mmHg 42%
    08:00 +7°C° 0 mm 3 mps 674 mmHg 37%
    09:00 +9°C° 0 mm 3 mps 674 mmHg 32%
    10:00 +10°C° 0 mm 3 mps 674 mmHg 27%
    11:00 +12°C° 0 mm 2 mps 674 mmHg 25%
    12:00 +12°C° 0 mm 2 mps 673 mmHg 23%
    13:00 +13°C° 0 mm 1 mps 673 mmHg 20%
    14:00 +13°C° 0 mm 1 mps 673 mmHg 20%
    15:00 +14°C° 0 mm 1 mps 673 mmHg 19%
    16:00 +14°C° 0 mm 1 mps 672 mmHg 18%
    17:00 +13°C° 0 mm 1 mps 673 mmHg 21%
    18:00 +13°C° 0 mm 1 mps 673 mmHg 24%
    19:00 +12°C° 0 mm 1 mps 673 mmHg 27%
    20:00 +12°C° 0 mm 1 mps 673 mmHg 28%
    21:00 +11°C° 0 mm 1 mps 674 mmHg 30%
    22:00 +10°C° 0 mm 1 mps 674 mmHg 31%
    23:00 +10°C° 0 mm 1 mps 674 mmHg 32%
    Show more